Погода в Преображенке

Погода в Преображенке : погода сейчас, прогноз погоды и архив. Всё, что Вы хотите узнать о погоде в Преображенке!

Хотите узнать прогноз погоды в Преображенке? Тогда Вам сюда: Погода в Преображенке

Поиск расширенной информации на нашем сайте:

Другие новости

Новости СМИ2

Главная страница сайта

Новости сайта

03.07.2017

Напоминаем, что на нашем специализированном сайте Метеоцентр.Азия вы можете получить высокодетализированные автоматические прогнозы погоды по пунктам России, СНГ и мира в авиационном формате (включающие направление и скорость ветра, видимость, явления погоды, количество и форму облачности, нижнюю и верхнюю границу облачности).


Погода в Преображенке - сегодня

Время (UTC), дата Ветер
(°,м/с) 
Видим.   Явления Облачность Т
(°С)
Тd
(°С)
f(%) Тe
(°С)
Pmin
(гПа)
dP
(гПа)
Po
(мм)
O2
(г/м3)
Тmin Tmax R s Состояние
почвы
03 20.04.18 270 (З) 20000 м    8/3 600 м верхняя 
[Cu med, cong|Ci fib]
-1.9 -11.4 48 -5  1020.7  0.4  738  300           
06 20.04.18 290 (З) 20000 м    9/8 600 м верхняя 
[Cu med, cong|Ci fib]
+0.3 -12 39 -2  1020.2  -0.1  738  298           
09 20.04.18 270 (З) 20000 м    9/9 600 м 
[Cu med, cong]
+1.1 -12 37 1019.9  -0.3  737  297           
15 20.04.18 180 (Ю) н/о    3/0 средняя 
[Ac lent]
-5.5 -11.6 62 -5  1021.4  0.9  738  305           
18 20.04.18 160 (Ю) н/о    6/0 верхняя 
[Ci fib]
-5.3 -11.3 63 -7  1021.6  0.2  738  304           
21 20.04.18 160 (Ю) н/о    9/0 средняя, верхняя 
[Ac lent|Ci fib]
-5.7 -11.9 62 -8  1022.5  0.6  739  305           
03 21.04.18 180 (Ю) 20000 м    10/0 верхняя 
[Cs]
+3.9 -8.8 39 +3  1020.5  -0.9  738  294           
06 21.04.18 230 (ЮЗ) 20000 м    9/0 верхняя 
[Cs]
+5.8 -8.3 35 +4  1019.6  -0.6  738  292           
09 21.04.18 230 (ЮЗ) 20000 м    9/0 средняя, верхняя 
[Ac As|Cs]
+7 -8.5 32 +6  1017.1  -2.3  736  290           
15 21.04.18 200 (Ю) 3{10}  н/о    9/0 средняя, верхняя 
[Ac As|Cs]
+6.5 -6.1 40 +6  1016.5  -0.1  736  290           
18 21.04.18 160 (Ю) н/о    9/0 средняя, верхняя 
[Ac As|Cs]
+4.3 -6.3 46 +3  1016.3  -0.5  735  292           
21 21.04.18 160 (Ю) н/о    10/0 кучево-дожд. 
[Cb cap]
+4.7 -6.9 43 +4  1016  0.3  735  292           
03 22.04.18 230 (ЮЗ) 20000 м    9/3 600 м кучево-дожд., средняя, верхняя 
[Cb cap|Ac lent|Cc]
+9.6 -0.8 48 +8  1015.1  -0.2  735  286           
06 22.04.18 250 (З) 20000 м    9/3 600 м средняя, верхняя 
[Cu med, cong|Ac lent|Cc]
+12.4 +0.4 44 +12  1013.2  -1.4  734  283           
09 22.04.18 250 (З) 20000 м    10/8 600 м кучево-дожд., средняя 
[Cb cap|As op]
+11.4 -0.1 45 +10  1012.7  -0.7  733  284           
15 22.04.18 140 (ЮВ) н/о    8/8 600 м кучево-дожд. 
[Cb cap]
+6.8 -1.1 57 +8  1011.3  -1.5  732  288           
18 22.04.18 140 (ЮВ) н/о    8/8 600 м кучево-дожд. 
[Cb cap]
+4.5 -2.5 60 +5  1009.2  -2.2  730  290           
21 22.04.18 140 (ЮВ) н/о    10/10 600 м кучево-дожд. 
[Cb cap]
+7 -2.9 49 +6  1005.7  -3  728  286           
15 23.04.18 320 (СЗ) 2{12}  н/о    3/0 верхняя 
[Ci fib]
-0.6 -10 49 -1  1018.3  2.7  736  298           
18 23.04.18 тихо ()   н/о    3/0 верхняя 
[Ci fib]
-4.7 -9.5 69 -5  1019.5  0.6  737  303           
21 23.04.18 тихо ()   н/о    1/0 верхняя 
[Ci fib]
-7.7 -9.9 84 -8  1020.3  0.4  737  306           
03 24.04.18 320 (СЗ) 20000 м    10/0 верхняя 
[Cs]
+0.5 -9.6 47 1018.4  -1  736  297           
06 24.04.18 360 (С) 20000 м    10/0 верхняя 
[Cs]
+2.5 -10.3 38 +1  1016.7  -1.3  735  295           
09 24.04.18 320 (СЗ) 20000 м    9/0 верхняя 
[Ci]
+3 -9.9 38 +2  1016.9  0.2  735  294           
15 24.04.18 тихо ()   н/о    ясно 
-4.3 -9.4 68 -4  1020.3  1.6  737  303           
Время (UTC), дата Ветер
(°,м/с) 
Видим.   Явления Облачность Т
(°С)
Тd
(°С)
f(%) Тe
(°С)
Pmin
(гПа)
dP
(гПа)
Po
(мм)
O2
(г/м3)
Тmin Tmax R s Состояние
почвы

Для получения пояснительной информации подведите курсор к названию столбца.

ПОГОДА в Преображенке - архив

Всё, что Вы хотите узнать о погоде в Преображенке - удобно и подробно!

Выберите нужную дату (начиная с 1 января 2015* года) и нажмите кнопку "Найти".
Будут отображены архивные сводки погоды по пункту Преображенка, начиная с указанной даты.


Отображать данные в формате CSV (для использования в таблицах Excel)


Внимание! Наш архив погоды предназначен исключительно для личного некоммерческого использования в познавательных целях. Если Вам необходимы официальные справки о состоянии погоды (для производственных, юридических, коммерческих и т.п. целей), обращайтесь в органы Росгидромета.

*Примечание: данная дата относится к архиву по метеостанциям СССР (Россия, СНГ, Балтия).
Архив по метеостанциям Зарубежной Европы и Азии (кроме Китая) хранится 10 дней, по другим регионам земного шара (Китай, Африка, Америка, Австралия, Океания) - 1 день.

Преображенка - район местоположения метеостанции


Название, широта, долгота, высота метеостанции:
Преображенка 60.1°ш. 108°д. 292 м над ур. моря [Российская Федерация]

Дополнительная информация

В oтличие oт бoльшинства пoгoдных сайтoв мы публикуем пoдрoбную метеoинфoрмацию в детальнoм прoфессиoнальнoм фoрмате.

Характеристики температуры и влажнoсти вoздуха измеряются на высoте 2 м в тени вдали oт зданий и деревьев.
Скoрoсть ветра измеряется на высoте 10 м (на урoвне рoста челoвека скoрoсть ветра ниже в 1.5-2 раза). Если метеoстанция нахoдится в гoрoде или в лесу, тo скoрoсть ветра занижена на 2-4 м/с пo сравнению с oткрытым местoм. Скoрoсть ветра над акватoриями крупных рек и oзёр, а также на вершинах хoлмoв на 2-5 м/с выше, чем в oбычных услoвиях.
Атмoсфернoе давление в разных тoчках местнoсти мoжет значительнo oтличаться oт давления на метеoстанции, в зависимoсти oт услoвий рельефа (при пoдъёме на 10 м давление пoнижается примернo на 1 мм рт.ст.).